Regional Weather Roundup
Issued by NWS Charleston, WV

Home | Current Version | Previous Version | Graphics & Text | Print | Product List | Glossary On
Versions: 1 2 3 4 5 6 7 8 9 10 11 12 13 14 15 16 17 18 19 20 21 22 23 24 25 26 27
000
ASUS41 KRLX 111210
RWRRLX
West Virginia Regional Weather Roundup
National Weather Service Charleston WV
700 AM EST MON DEC 11 2017

Note: "fair" indicates few or no clouds below 12,000 feet with no
significant weather and/or obstructions to visibility.

WVZ003-111300-
Northern Panhandle of West Virginia

CITY           SKY/WX    TMP DP  RH WIND       PRES   REMARKS
WHEELING       CLOUDY    31  18  58 W7        30.04R
$$

WVZ009-111300-
Northwest West Virginia

CITY           SKY/WX    TMP DP  RH WIND       PRES   REMARKS
PARKERSBURG    CLOUDY    32  21  64 VRB5      30.11R
$$

WVZ006-111300-
Western West Virginia

CITY           SKY/WX    TMP DP  RH WIND       PRES   REMARKS
HUNTINGTON     CLEAR     30  20  66 S3        30.10F
$$

WVZ015-111300-
West Central West Virginia

CITY           SKY/WX    TMP DP  RH WIND       PRES   REMARKS
CHARLESTON     CLEAR     32  20  61 SW5       30.09S
$$

WVZ022-031-111300-
North Central West Virginia

CITY           SKY/WX    TMP DP  RH WIND       PRES   REMARKS
CLARKSBURG     CLOUDY    34  20  56 W7        30.05R
MORGANTOWN     CLOUDY    33  20  58 VRB3      30.04S
$$

WVZ025-035-042-045-111300-
Southern West Virginia

CITY           SKY/WX    TMP DP  RH WIND       PRES   REMARKS
BECKLEY        CLEAR     27  18  69 CALM      30.03R
LOGAN            N/A     32  21  64 CALM      30.07S
BLUEFIELD      CLEAR     27  18  69 W9        30.03R
LEWISBURG      PTCLDY    32  22  65 W8        30.02F
$$

WVZ047-111300-
Northern Mountains of West Virginia

CITY           SKY/WX    TMP DP  RH WIND       PRES   REMARKS
ELKINS         CLOUDY    32  19  58 SW8       30.02R
$$

WVZ052-111300-
Eastern Panhandle of West Virginia

CITY           SKY/WX    TMP DP  RH WIND       PRES   REMARKS
MARTINSBURG    CLOUDY    34  21  59 SW3       30.04R
PETERSBURG     CLOUDY    36  20  53 CALM      30.03R
$$




USA.gov is the U.S. government's official web portal to all federal, state and local government web resources and services.